Stations météo

réclame
Mon MeteoGroup
Neuburg/Donau, Allemagne (10853): Température de l'air & dewpoint: 19.03.2019 11:00:00 - 25.03.2019 11:00:00 (CET)Neuburg/Donau, Allemagne (10853): Vitesse du vent: 19.03.2019 11:00:00 - 25.03.2019 11:00:00 (CET)Neuburg/Donau, Allemagne (10853): Direction du vent: 19.03.2019 11:00:00 - 25.03.2019 11:00:00 (CET)Neuburg/Donau, Allemagne (10853): reduced air pressure: 19.03.2019 11:00:00 - 25.03.2019 11:00:00 (CET)Neuburg/Donau, Allemagne (10853): visibility: 19.03.2019 11:00:00 - 25.03.2019 11:00:00 (CET)
Date & Time tt [°C] td [°C] ff [km/h] ff [knt] dd ppp [hPa] vv [km]
25.03.2019 11:00:00 7,7 -2,8 29 16 W 1020,6 35
25.03.2019 10:00:00 6,9 -3,3 25 14 W 1020,8 30
25.03.2019 09:00:00 5,7 -1,6 22 12 W 1021,6 25
25.03.2019 08:00:00 5,0 -1,1 22 12 WNW 1021,2 23
25.03.2019 07:00:00 4,0 -1,2 18 10 W 1021,2 20
25.03.2019 06:00:00 5,3 0,2 22 12 W 1021,0 18
25.03.2019 05:00:00 6,8 2,4 18 10 W 1020,3 20
25.03.2019 04:00:00 7,1 3,6 14 8 W 1020,5 12
25.03.2019 03:00:00 7,0 4,1 11 6 W 1020,9 9
25.03.2019 02:00:00 7,0 4,4 11 6 WNW 1021,4 7
25.03.2019 01:00:00 6,8 4,6 11 6 W 1021,8 6
25.03.2019 00:00:00 6,1 4,3 11 6 WSW 1022,5 6
24.03.2019 23:00:00 4,5 2,3 7 4 WSW 1023,0 6
24.03.2019 22:00:00 5,0 2,6 7 4 SSW 1023,0 7
24.03.2019 21:00:00 8,3 4,2 11 6 W 1022,9 7
24.03.2019 20:00:00 10,2 5,1 11 6 NW 1022,1 7
24.03.2019 19:00:00 11,8 4,4 18 10 NW 1021,2 9
24.03.2019 18:00:00 14,0 5,4 22 12 NW 1020,1 9
24.03.2019 17:00:00 16,2 3,9 14 8 NW 1019,3 11
24.03.2019 16:00:00 17,0 3,5 14 8 W 1019,2 11
24.03.2019 15:00:00 17,2 2,2 14 8 W 1019,6 12
24.03.2019 14:00:00 16,9 3,8 14 8 W 1020,4 11
24.03.2019 13:00:00 15,8 5,2 4 2 N 1021,3 9
24.03.2019 12:00:00 14,0 6,2 4 2 N 1022,3 7
24.03.2019 11:00:00 11,3 5,8 4 2 SE 1023,7 7
24.03.2019 10:00:00 9,8 5,3 4 2 S 1024,4 6
24.03.2019 09:00:00 6,4 3,4 0 0 N 1025,4 6
24.03.2019 08:00:00 2,5 1,3 2 1 - 1026,2 5
24.03.2019 07:00:00 -1,5 -2,1 4 2 SW 1027,0 3,0
24.03.2019 06:00:00 -1,0 -1,8 0 0 N 1026,9 5
24.03.2019 05:00:00 0,8 -0,1 2 1 - 1026,8 5
24.03.2019 04:00:00 0,6 0,0 4 2 SSE 1026,9 10
24.03.2019 03:00:00 1,9 0,4 4 2 N 1026,8 10
24.03.2019 02:00:00 1,6 -0,2 7 4 N 1027,4 10
24.03.2019 01:00:00 2,9 1,3 4 2 SW 1027,3 15
24.03.2019 00:00:00 3,2 1,7 4 2 S 1027,8 15
23.03.2019 23:00:00 4,3 1,9 4 2 SE 1027,9 18
23.03.2019 22:00:00 5,0 1,7 4 2 S 1028,0 18
23.03.2019 21:00:00 5,3 2,0 7 4 S 1027,8 20
23.03.2019 20:00:00 11,1 1,3 4 2 NW 1026,5 22
23.03.2019 19:00:00 12,5 1,0 7 4 NW 1025,8 20
23.03.2019 18:00:00 16,8 1,0 7 4 W 1024,7 20
23.03.2019 17:00:00 18,0 1,2 11 6 W 1024,5 22
23.03.2019 16:00:00 18,1 1,5 7 4 SSW 1024,7 22
23.03.2019 15:00:00 17,7 0,5 7 4 SW 1025,1 25
23.03.2019 14:00:00 17,0 0,9 7 4 WNW 1025,9 25
23.03.2019 13:00:00 16,4 3,2 4 2 SW 1026,6 25
23.03.2019 12:00:00 14,2 3,6 4 2 SSW 1027,3 18
23.03.2019 11:00:00 11,5 3,3 7 4 N 1028,3 15
23.03.2019 10:00:00 8,2 2,2 7 4 N 1029,2 15
23.03.2019 09:00:00 5,5 2,2 7 4 W 1029,7 15
23.03.2019 08:00:00 2,2 1,4 4 2 N 1030,3 15
23.03.2019 07:00:00 -1,2 -1,4 4 2 SW 1030,7 12
23.03.2019 06:00:00 -2,6 -2,9 2 1 S 1030,6 2,0
23.03.2019 05:00:00 -1,2 -1,6 0 0 N 1030,3 10
23.03.2019 04:00:00 -1,3 -1,6 4 2 W 1030,3 15
23.03.2019 03:00:00 -1,3 -1,8 4 2 SSW 1030,3 20
23.03.2019 02:00:00 1,0 0,3 4 2 NW 1030,2 20
23.03.2019 01:00:00 1,4 0,5 4 2 NNE 1030,1 20
23.03.2019 00:00:00 2,6 1,7 4 2 W 1029,9 20
22.03.2019 23:00:00 3,3 1,5 0 0 N 1030,0 20
22.03.2019 22:00:00 4,0 1,6 4 2 N 1030,1 30
22.03.2019 21:00:00 7,1 3,2 4 2 NE 1029,3 30
22.03.2019 20:00:00 8,1 3,7 4 2 SSW 1029,1 30
22.03.2019 19:00:00 11,3 3,4 4 2 SE 1028,5 40
22.03.2019 18:00:00 15,5 3,1 7 4 SE 1027,9 40
22.03.2019 17:00:00 16,5 2,6 11 6 ESE 1027,7 45
22.03.2019 16:00:00 16,2 1,8 14 8 ESE 1028,1 40
22.03.2019 15:00:00 16,4 1,4 14 8 E 1028,4 40
22.03.2019 14:00:00 16,3 1,6 18 10 E 1028,8 40
22.03.2019 13:00:00 15,2 0,3 18 10 E 1029,6 40
22.03.2019 12:00:00 14,0 0,7 11 6 E 1030,2 40
22.03.2019 11:00:00 11,9 -1,2 14 8 E 1031,2 30
22.03.2019 10:00:00 10,1 -0,8 4 2 ESE 1031,8 30
22.03.2019 09:00:00 5,4 0,5 4 2 N 1032,6 30
22.03.2019 08:00:00 1,7 -0,4 4 2 S 1033,4 30
22.03.2019 07:00:00 -1,9 -3,2 0 0 N 1034,0 30
22.03.2019 06:00:00 -1,2 -2,4 4 2 N 1033,5 30
22.03.2019 05:00:00 -1,1 -2,2 0 0 N 1033,1 40
22.03.2019 04:00:00 -1,6 -3,1 4 2 N 1033,4 40
22.03.2019 03:00:00 -0,6 -2,5 4 2 NNE 1033,4 40
22.03.2019 02:00:00 0,2 -1,5 4 2 E 1033,5 40
22.03.2019 01:00:00 0,9 -1,8 4 2 N 1033,7 50
22.03.2019 00:00:00 1,4 -1,3 7 4 NNE 1033,7 50
21.03.2019 23:00:00 1,7 -1,9 0 0 N 1033,8 60
21.03.2019 22:00:00 3,7 -1,6 4 2 NNE 1033,4 60
21.03.2019 21:00:00 5,4 -2,7 4 2 N 1033,0 60
21.03.2019 20:00:00 7,0 -2,9 4 2 NNW 1032,7 60
21.03.2019 19:00:00 9,7 -4,3 4 2 ENE 1031,8 50
21.03.2019 18:00:00 12,4 -4,3 11 6 E 1031,1 50
21.03.2019 17:00:00 13,8 -4,3 11 6 ENE 1030,9 50
21.03.2019 16:00:00 14,2 -4,3 14 8 ENE 1031,0 50
21.03.2019 15:00:00 14,0 -2,1 14 8 NE 1031,4 50
21.03.2019 14:00:00 13,6 -2,8 18 10 E 1032,3 50
21.03.2019 13:00:00 12,2 -2,2 14 8 ENE 1033,2 50
21.03.2019 12:00:00 11,2 -2,3 18 10 E 1034,2 50
21.03.2019 11:00:00 9,5 -3,0 18 10 ENE 1034,9 50
21.03.2019 10:00:00 7,3 -2,7 11 6 ENE 1035,5 45
21.03.2019 09:00:00 4,0 -2,5 7 4 ENE 1036,2 40
21.03.2019 08:00:00 1,0 -3,4 7 4 ENE 1036,7 40
21.03.2019 07:00:00 -3,1 -4,5 7 4 NNE 1037,1 40
21.03.2019 06:00:00 -3,2 -4,6 4 2 N 1036,7 40
21.03.2019 05:00:00 -3,1 -4,5 0 0 N 1037,3 50
21.03.2019 04:00:00 -2,9 -4,4 4 2 N 1037,4 50
21.03.2019 03:00:00 -2,6 -4,2 4 2 N 1037,4 50
21.03.2019 02:00:00 -2,9 -4,7 4 2 S 1037,7 50
21.03.2019 01:00:00 -1,7 -3,8 4 2 NE 1037,7 50
21.03.2019 00:00:00 -1,2 -3,4 4 2 NNE 1037,7 50
20.03.2019 23:00:00 0,1 -2,8 0 0 N 1037,3 50
20.03.2019 22:00:00 1,1 -3,6 4 2 NNW 1037,1 50
20.03.2019 21:00:00 2,4 -3,5 7 4 N 1036,4 50
20.03.2019 20:00:00 4,1 -3,6 0 0 N 1035,7 75
20.03.2019 19:00:00 6,1 -1,8 4 2 N 1035,1 75
20.03.2019 18:00:00 8,8 -5,6 7 4 SE 1034,2 75
20.03.2019 17:00:00 9,6 -5,6 4 2 N 1033,7 75
20.03.2019 16:00:00 9,8 -5,4 7 4 SE 1033,7 75
20.03.2019 15:00:00 9,7 -5,0 11 6 SE 1034,0 75
20.03.2019 14:00:00 9,2 -5,7 4 2 ENE 1034,5 75
20.03.2019 13:00:00 8,6 -6,0 7 4 SE 1035,2 75
20.03.2019 12:00:00 7,6 -6,0 7 4 SSE 1035,6 75
20.03.2019 11:00:00 7,6 -3,4 4 2 NE 1035,4 45
20.03.2019 10:00:00 4,2 -0,8 4 2 N 1036,0 40
20.03.2019 09:00:00 1,0 -2,4 4 2 N 1036,3 40
20.03.2019 08:00:00 -2,1 -3,5 4 2 W 1036,5 40
20.03.2019 07:00:00 -4,2 -5,0 0 0 N 1036,3 35
20.03.2019 06:00:00 -4,1 -5,1 0 0 N 1035,6 20
20.03.2019 05:00:00 -3,9 -5,2 0 0 N 1035,1 20
20.03.2019 04:00:00 -3,6 -4,7 4 2 ESE 1034,9 20
20.03.2019 03:00:00 -3,1 -4,4 4 2 WNW 1034,7 20
20.03.2019 02:00:00 -2,6 -3,9 4 2 NW 1034,9 30
20.03.2019 01:00:00 -2,3 -3,6 4 2 SSW 1034,6 30
20.03.2019 00:00:00 -1,6 -3,4 4 2 SSE 1034,0 30
19.03.2019 23:00:00 -1,1 -2,8 4 2 WNW 1033,7 30
19.03.2019 22:00:00 0,3 -3,5 0 0 N 1032,8 50
19.03.2019 21:00:00 1,8 -4,0 4 2 N 1032,1 50
19.03.2019 20:00:00 2,3 -3,5 7 4 N 1031,4 50
19.03.2019 19:00:00 3,9 -4,2 7 4 N 1030,4 50
19.03.2019 18:00:00 6,3 -4,7 11 6 N 1029,0 50
19.03.2019 17:00:00 8,6 -5,1 11 6 NNW 1027,8 50
19.03.2019 16:00:00 8,5 -5,7 14 8 WNW 1027,6 50
19.03.2019 15:00:00 9,3 -3,2 18 10 N 1027,3 50
19.03.2019 14:00:00 7,8 -1,7 7 4 W 1027,7 45
19.03.2019 13:00:00 6,1 -1,7 7 4 W 1028,2 40
19.03.2019 12:00:00 5,7 -2,4 4 2 SE 1028,3 30
19.03.2019 11:00:00 5,5 -1,4 4 2 N 1028,2 30

tt = Température de l'air
td = dewpoint
ff = Vitesse du vent
dd = Direction du vent
ppp = reduced air pressure
vv = visibility

stations d'obs. à proximité